Location: Im Fang
(46.6019°N, 7.2397°E)
Time: 15:01:46
(UTC+00:00)

Timation 1 Rocket - Pass Details

Date: 08 December 2019
Orbit: 897 x 910 km, 70.0° (Epoch: 22 January)

Event Time Altitude Azimuth Distance (km) Brightness Sun altitude
Rises 06:06:48 0° 222° (SW) 3,503 7.2 -9.2°
Reaches altitude 10° 06:09:21 10° 227° (SW) 2,567 6.5 -8.8°
Maximum altitude 06:15:08 53° 304° (NW) 1,099 4.5 -7.8°
Drops below altitude 10° 06:20:58 10° 21° (NNE) 2,587 6.7 -6.9°
Sets 06:23:34 0° 27° (NNE) 3,534 7.4 -6.5°
